Content
SEND FEEDBACK

Daily
Averages
Monthly
Summary
United States of America

WICHITA, KANSAS


Home > North America > United States > Kansas
Elevation: 402 meters     Latitude: 37 39N     Longitude: 097 26W

WEATHER
 
SELECT A DAY
Number of Records: 192,235;   Date Range: 1/1/95 - 9/22/14
 
SHARE

PRINT THIS DATA

[ ← Previous Day ]
WEATHER ALMANAC - 12 MARCH, 2013
[ Next Day → ]
[ °F ]   °C
Weather ElementAverageHighLow
Temperature7.3 °C12.2 °C (3:53 pm)1.7 °C (11:53 pm)
Dewpoint-3.1 °C2.2 °C (4:53 am)-6.7 °C (9:53 pm)
Humidity50.7 %79 % (2:53 am)30 % (3:53 pm)
Barometer1024.4 hPa1029.1 hPa (11:53 pm)1019 hPa (1:53 am)
Wind Speed15.1 km/h35.2 km/h (3:53 pm)
Wind Gust46.3 km/h (1:53 pm)
Weather ElementAverage
Visibility16.1 km
Wind DirectionW (272.6 °)

Weather ElementTotal
Precipitation---
Heating Degree Days11.4 (Base 18.3)
Averaged from 23 records on 12 March, 2013
WEATHER CONDITIONS BREAKOUT
WIND DIRECTION BREAKOUT
WEATHER BY HOUR - 12 MARCH, 2013
[ °F ]   °C
Local TimeTemperatureDewpointHumidityBarometerVisibilityWind DirectionWind SpeedGust SpeedPrecipitationEventsConditions
1:53 AM4.4 °C0 °C73 %1019 hPa16.1 kmWSW (250°)7.4 km/h0 mmOvercast
2:53 AM4.4 °C1.1 °C79 %1019.6 hPa16.1 kmWSW (250°)7.4 km/h0 mmOvercast
3:53 AM5.6 °C1.7 °C76 %1019.3 hPa16.1 kmSW (230°)20.4 km/h0 mmRainLight Rain
4:53 AM5.6 °C2.2 °C79 %1020.3 hPa16.1 kmNW (310°)13 km/h0 mmOvercast
5:53 AM6.1 °C-0.6 °C62 %1021 hPa16.1 kmNNE (20°)13 km/hOvercast
6:53 AM5 °C-2.2 °C60 %1021.7 hPa16.1 kmNorth (360°)9.3 km/hOvercast
7:53 AM3.9 °C-2.2 °C65 %1023 hPa16.1 kmNorth (360°)7.4 km/hMostly Cloudy
8:53 AM5 °C-1.7 °C62 %1024.4 hPa16.1 kmNorth (360°)9.3 km/hScattered Clouds
9:53 AM6.7 °C-2.8 °C51 %1025.1 hPa16.1 kmNorth (10°)13 km/hScattered Clouds
10:53 AM7.8 °C-2.8 °C47 %1025.4 hPa16.1 kmNNW (340°)5.6 km/hMostly Cloudy
11:53 AM10 °C-3.9 °C38 %1026.1 hPa16.1 kmNNW (340°)13 km/hMostly Cloudy
12:53 PM10.6 °C-1.7 °C43 %1026.4 hPa16.1 kmNW (320°)25.9 km/h38.9 km/hMostly Cloudy
1:53 PM11.1 °C-5 °C32 %1025.7 hPa16.1 kmNNW (330°)22.2 km/h46.3 km/hScattered Clouds
2:53 PM11.7 °C-3.9 °C34 %1025.1 hPa16.1 kmNorth (350°)22.2 km/h33.3 km/hScattered Clouds
3:53 PM12.2 °C-5 °C30 %1024.7 hPa16.1 kmNNW (330°)35.2 km/h46.3 km/hScattered Clouds
4:53 PM12.2 °C-4.4 °C31 %1024.7 hPa16.1 kmNNW (330°)29.6 km/h38.9 km/hScattered Clouds
5:53 PM11.1 °C-4.4 °C34 %1024.7 hPa16.1 kmNorth (350°)24.1 km/h38.9 km/hPartly Cloudy
6:53 PM10 °C-5.6 °C33 %1025.4 hPa16.1 kmNorth (360°)24.1 km/hPartly Cloudy
7:53 PM7.2 °C-5.6 °C40 %1026.1 hPa16.1 kmNorth (10°)13 km/hClear
8:53 PM6.1 °C-5 °C45 %1027.1 hPa16.1 kmNorth (10°)9.3 km/hClear
9:53 PM5 °C-6.7 °C43 %1027.4 hPa16.1 kmNorth (360°)9.3 km/hClear
10:53 PM3.3 °C-6.7 °C48 %1028.4 hPa16.1 kmNorth (360°)5.6 km/hClear
11:53 PM1.7 °C-5 °C61 %1029.1 hPa16.1 kmNNW (330°)9.3 km/hClear
Hourly data recorded from KICT, located 0 kilometers away from Wichita, Kansas







STORIES FROM OUR PARTNERS